Total_Precipitation_Accumulation
1.69 1.86 2.01 2.11 2.08 1.90 1.92 2.03 1.93 1.64 1.45 1.30 1.21 1.15 1.16 1.22 1.51 1.42 1.24 1.19 1.06 1.00 0.94 0.91 0.91 0.93 1.09 1.30 1.47 1.60 1.69 1.72 1.76 1.84 1.92 1.94 1.88 1.88
1.69 1.82 1.84 1.89 1.94 1.82 1.80 1.94 1.93 1.73 1.50 1.29 1.16 1.12 1.19 1.15 1.33 1.24 1.33 1.39 1.09 0.97 0.90 0.90 0.83 0.77 0.72 0.77 0.89 1.02 1.11 1.16 1.27 1.36 1.44 1.45 1.44 1.48
1.20 1.33 1.53 1.72 1.80 1.78 1.82 1.89 1.94 1.82 1.57 1.42 1.19 1.17 1.31 1.27 1.26 1.21 1.30 1.35 1.13 1.02 0.87 0.82 0.80 0.75 0.72 0.67 0.68 0.74 0.83 0.88 0.95 1.02 1.10 1.17 1.18 1.20
1.01 1.03 1.13 1.37 1.52 1.65 1.72 1.74 1.82 1.80 1.65 1.62 1.53 1.32 1.27 1.26 1.36 1.44 1.38 1.35 1.30 1.28 1.14 0.93 0.85 0.80 0.76 0.71 0.65 0.62 0.63 0.67 0.73 0.77 0.81 0.92 1.04 1.09
0.93 0.93 1.01 1.12 1.28 1.36 1.45 1.56 1.64 1.75 1.74 1.56 1.62 1.58 1.37 1.32 1.35 1.43 1.49 1.59 1.46 1.41 1.46 1.29 1.07 0.95 0.87 0.80 0.72 0.67 0.65 0.66 0.68 0.73 0.76 0.80 0.84 0.89
0.88 0.95 0.96 0.99 1.15 1.36 1.46 1.53 1.56 1.67 1.78 1.71 1.65 1.64 1.49 1.42 1.40 1.43 1.56 1.66 1.66 1.45 1.36 1.31 1.25 1.14 1.00 0.90 0.82 0.77 0.75 0.73 0.74 0.75 0.76 0.84 0.86 0.84
0.76 0.77 0.84 0.93 1.00 1.18 1.31 1.54 1.56 1.67 1.74 1.80 1.73 1.59 1.46 1.41 1.39 1.38 1.47 1.66 1.70 1.66 1.56 1.38 1.26 1.10 0.99 0.97 0.95 0.92 0.87 0.82 0.83 0.88 0.91 0.92 0.93 0.96
0.74 0.76 0.75 0.78 0.81 0.88 0.92 1.17 1.36 1.48 1.59 1.61 1.67 1.56 1.43 1.38 1.47 1.51 1.49 1.51 1.60 1.60 1.47 1.52 1.48 1.30 1.14 1.01 1.09 1.15 1.12 1.07 0.97 0.93 0.96 1.01 1.03 1.05
0.68 0.76 0.81 0.79 0.86 0.95 0.92 0.97 1.07 1.14 1.27 1.39 1.44 1.40 1.39 1.36 1.45 1.51 1.49 1.41 1.33 1.42 1.40 1.45 1.50 1.38 1.24 1.14 1.16 1.13 1.11 1.09 1.03 0.96 0.92 0.92 0.98 1.04
0.72 0.71 0.81 0.87 0.94 1.11 1.09 1.15 1.09 1.00 1.01 1.07 1.21 1.26 1.23 1.33 1.42 1.59 1.68 1.54 1.41 1.43 1.42 1.34 1.29 1.25 1.17 1.17 1.19 1.05 1.00 1.00 0.98 0.94 0.88 0.85 0.85 0.91
0.71 0.72 0.82 0.91 1.09 1.21 1.22 1.23 1.13 1.06 1.12 1.21 1.27 1.33 1.34 1.40 1.47 1.54 1.61 1.62 1.52 1.46 1.37 1.25 1.16 1.16 1.16 1.12 1.10 1.11 1.05 1.01 0.97 0.95 0.92 0.90 0.92 1.02
0.76 0.74 0.94 0.95 1.04 1.10 1.15 1.27 1.29 1.17 1.13 1.14 1.17 1.20 1.19 1.27 1.48 1.50 1.62 1.72 1.59 1.50 1.37 1.26 1.22 1.32 1.38 1.20 1.06 1.03 1.01 1.06 1.07 1.03 1.02 1.01 1.05 1.02
0.74 0.74 0.71 0.85 0.87 0.97 1.09 1.15 1.38 1.28 1.21 1.22 1.18 1.07 1.05 1.10 1.22 1.40 1.55 1.64 1.60 1.39 1.26 1.26 1.27 1.30 1.30 1.19 1.10 1.07 1.05 1.01 1.02 1.01 1.03 1.09 1.14 1.08
0.59 0.66 0.65 0.74 0.78 0.85 0.87 1.06 1.25 1.21 1.14 1.23 1.24 1.16 1.07 1.06 1.08 1.16 1.32 1.40 1.37 1.34 1.28 1.25 1.24 1.20 1.18 1.08 1.04 1.07 1.10 1.05 1.02 1.02 1.01 1.15 1.19 1.26
0.42 0.58 0.65 0.73 0.70 0.69 0.81 1.01 1.07 1.09 1.24 1.20 1.22 1.18 1.09 1.06 1.00 1.05 1.16 1.22 1.18 1.15 1.16 1.18 1.25 1.24 1.22 1.12 0.98 0.94 1.04 1.10 1.07 1.06 1.07 1.09 1.05 1.10
0.42 0.57 0.70 0.76 0.73 0.70 0.77 0.90 0.96 1.09 1.25 1.15 1.11 1.07 1.02 1.03 1.01 1.00 1.03 1.10 1.15 1.11 1.08 1.08 1.23 1.42 1.43 1.31 1.24 1.14 1.08 1.10 1.09 1.14 1.18 1.18 1.18 1.17
0.55 0.71 0.83 0.84 0.85 0.81 0.83 0.93 0.91 0.89 0.97 0.95 0.97 1.00 1.01 1.01 0.96 0.90 0.93 0.97 1.02 0.98 0.98 0.97 0.99 1.09 1.25 1.34 1.37 1.29 1.29 1.31 1.29 1.32 1.35 1.25 1.15 1.16
0.73 0.89 1.00 1.07 1.07 1.02 0.98 0.96 0.88 0.86 0.83 0.85 0.94 0.96 0.94 0.97 0.97 0.92 0.94 0.97 0.97 0.93 0.91 0.87 0.90 0.98 1.07 1.11 1.07 1.05 1.10 1.15 1.17 1.26 1.34 1.31 1.16 1.06
0.97 1.01 1.05 1.10 1.13 1.08 0.97 0.88 0.77 0.70 0.72 0.79 0.81 0.82 0.86 0.90 0.95 0.95 0.94 0.92 0.88 0.85 0.83 0.81 0.86 0.96 1.06 1.00 0.87 0.81 0.92 1.02 1.08 1.14 1.19 1.15 1.02 0.96
1.01 1.04 1.12 1.11 1.06 0.94 0.82 0.72 0.62 0.59 0.63 0.66 0.65 0.64 0.70 0.77 0.83 0.87 0.89 0.88 0.84 0.82 0.81 0.80 0.85 0.95 1.05 1.04 0.91 0.79 0.83 0.93 0.99 1.05 1.05 1.07 1.03 1.06
0.71 0.76 0.80 0.82 0.77 0.68 0.62 0.59 0.55 0.53 0.54 0.56 0.58 0.59 0.65 0.67 0.69 0.74 0.82 0.90 0.91 0.88 0.86 0.81 0.81 0.92 0.96 1.02 0.96 0.79 0.73 0.84 0.93 0.95 0.97 1.07 1.10 1.07
0.49 0.52 0.52 0.50 0.50 0.51 0.52 0.53 0.54 0.54 0.55 0.57 0.61 0.63 0.67 0.71 0.69 0.70 0.75 0.81 0.85 0.86 0.85 0.83 0.85 0.92 0.95 1.00 0.93 0.80 0.72 0.71 0.83 1.00 1.01 1.00 0.98 0.94
0.45 0.47 0.47 0.46 0.46 0.48 0.53 0.55 0.58 0.57 0.56 0.59 0.64 0.65 0.67 0.71 0.72 0.75 0.77 0.81 0.84 0.85 0.85 0.85 0.89 0.94 0.94 0.91 0.88 0.82 0.78 0.74 0.75 0.83 0.92 1.04 0.95 0.79